Weather History for Gwinn, MI

Change the Weather History Date:

Tuesday, September 10, 2013

  Actual Average (KESC) Record (KESC)
Temperature  
Mean Temperature 70 °F -  
Max Temperature 78 °F 68 °F 87 °F (2013)
Min Temperature 61 °F 51 °F 35 °F (2006)
Cooling Degree Days 4    
Growing Degree Days 20 (Base 50)    
Moisture  
Dew Point 64 °F    
Average Humidity 91    
Maximum Humidity 100    
Minimum Humidity 65    
Precipitation  
Precipitation 0.00 in - - ()
Sea Level Pressure  
Sea Level Pressure 29.80 in    
Wind  
Wind Speed 2 mph (SW)    
Max Wind Speed 16 mph    
Max Gust Speed 21 mph    
Visibility 5 miles    
Events Fog , Rain    
Averages and records for this station are not official NWS values.
T = Trace of Precipitation, MM = Missing Value Source: NWS Daily Summary

Daily Weather History Graph

Daily Weather History Graph

Search for Another Location

Airport:

Trip Planner

Search our weather history database for the weather conditions in past years. The results will help you decide how hot, cold, wet, or windy it might be!

Date:

Astronomy

Sep. 10, 2013 Rise Set
Actual Time 7:21 AM EDT 8:10 PM EDT
Civil Twilight 6:51 AM EDT 8:40 PM EDT
Nautical Twilight 6:14 AM EDT 9:17 PM EDT
Astronomical Twilight 5:36 AM EDT 9:54 PM EDT
Moon 1:07 PM EDT (9/10) 10:52 PM EDT (9/10)
Length of Visible Light 13h 49m
Length of Day
12h 48m
Waxing Crescent, 28% of the Moon is Illuminated
Sep 10
Waxing Crescent
Sep 12
First Quarter
Sep 19
Full
Sep 26
Last Quarter
Oct 4
New

Hourly Weather History & Observations

Time (EDT) Temp. Dew Point Humidity Pressure Visibility Wind Dir Wind Speed Gust Speed Precip Events Conditions
12:17 AM 65.5 °F 64.6 °F 97% 29.73 in 0.2 mi Calm Calm - N/A Fog Fog
12:36 AM 65.5 °F 64.6 °F 97% 29.73 in 0.2 mi Calm Calm - N/A Fog Fog
12:57 AM 65.3 °F 64.6 °F 98% 29.72 in 0.2 mi Calm Calm - N/A Fog Fog
1:16 AM 65.3 °F 64.6 °F 98% 29.73 in 0.2 mi Calm Calm - N/A Rain Light Rain
1:37 AM 65.3 °F 64.6 °F 98% 29.72 in 0.2 mi Calm Calm - N/A Fog Fog
1:57 AM 65.3 °F 64.6 °F 98% 29.72 in 0.2 mi Calm Calm - N/A Rain Light Rain
2:16 AM 65.3 °F 64.4 °F 97% 29.72 in 0.2 mi Calm Calm - N/A Fog Fog
2:37 AM 65.3 °F 64.4 °F 97% 29.72 in 0.5 mi Calm Calm - N/A Fog Fog
2:57 AM 65.3 °F 64.4 °F 97% 29.72 in 0.5 mi SSW 4.6 mph - N/A Fog Fog
3:16 AM 65.3 °F 64.4 °F 97% 29.73 in 0.5 mi SSW 3.5 mph - N/A Fog Fog
3:37 AM 64.9 °F 64.4 °F 98% 29.73 in 0.2 mi SSW 3.5 mph - N/A Fog Fog
3:57 AM 65.1 °F 64.4 °F 98% 29.74 in 0.2 mi SSW 3.5 mph - N/A Fog Fog
4:16 AM 65.3 °F 64.4 °F 97% 29.74 in 0.2 mi SSW 3.5 mph - N/A Fog Fog
4:37 AM 64.9 °F 64.4 °F 98% 29.74 in 0.2 mi SSW 3.5 mph - N/A Fog Fog
4:57 AM 64.9 °F 64.4 °F 98% 29.74 in 0.2 mi SW 3.5 mph - N/A Fog Fog
5:16 AM 65.3 °F 64.4 °F 97% 29.74 in 0.2 mi SSW 3.5 mph - N/A Fog Fog
5:37 AM 65.3 °F 64.4 °F 97% 29.74 in 0.2 mi Calm Calm - N/A Fog Fog
5:57 AM 65.3 °F 64.6 °F 98% 29.75 in 0.2 mi Calm Calm - N/A Fog Fog
6:50 AM 66.2 °F 64.4 °F 94% 29.77 in 0.2 mi SW 3.5 mph - N/A Fog Fog
7:53 AM 66.2 °F 66.2 °F 100% 29.77 in 0.2 mi SSW 4.6 mph - N/A Fog Fog
8:50 AM 68.0 °F 66.2 °F 94% 29.79 in 0.8 mi SSW 4.6 mph - N/A Fog Fog
9:50 AM 68.0 °F 68.0 °F 100% 29.80 in 2.0 mi West 3.5 mph - N/A   Mostly Cloudy
10:50 AM 71.6 °F 69.8 °F 94% 29.82 in 7.0 mi West 5.8 mph - N/A   Mostly Cloudy
11:50 AM 75.2 °F 69.8 °F 83% 29.81 in 10.0 mi WSW 8.1 mph - N/A   Scattered Clouds
12:50 PM 78.8 °F 68.0 °F 69% 29.82 in 10.0 mi WSW 16.1 mph 20.7 mph N/A   Scattered Clouds
1:50 PM 78.8 °F 66.2 °F 65% 29.84 in 10.0 mi West 15.0 mph 18.4 mph N/A   Scattered Clouds
2:50 PM 78.8 °F 66.2 °F 65% 29.85 in 10.0 mi West 10.4 mph - N/A   Scattered Clouds
3:50 PM 75.2 °F 64.4 °F 69% 29.87 in 10.0 mi West 10.4 mph 17.3 mph N/A Rain Light Rain
4:50 PM 71.6 °F 66.2 °F 83% 29.89 in 10.0 mi West 5.8 mph - N/A Rain Light Rain
5:55 PM 69.8 °F 66.2 °F 88% 29.89 in 10.0 mi West 3.5 mph - N/A   Mostly Cloudy
6:50 PM 71.6 °F 66.2 °F 83% 29.89 in 10.0 mi WSW 9.2 mph - N/A   Clear
7:55 PM 69.8 °F 62.6 °F 78% 29.89 in 10.0 mi WSW 6.9 mph - N/A   Clear
8:50 PM 66.2 °F 62.6 °F 88% 29.90 in 10.0 mi WSW 3.5 mph - N/A   Clear
9:50 PM 66.2 °F 62.6 °F 88% 29.91 in 10.0 mi Calm Calm - N/A   Clear
10:17 PM 65.3 °F 61.7 °F 88% 29.92 in 10.0 mi Calm Calm - N/A   Clear
10:36 PM 64.6 °F 61.3 °F 89% 29.91 in 10.0 mi Calm Calm - N/A   Clear
10:57 PM 63.9 °F 60.8 °F 90% 29.91 in 10.0 mi Calm Calm - N/A   Clear
11:17 PM 61.7 °F 59.4 °F 92% 29.91 in 10.0 mi Calm Calm - N/A   Clear
11:36 PM 62.6 °F 60.3 °F 92% 29.91 in 10.0 mi Calm Calm - N/A   Clear
11:57 PM 62.4 °F 60.1 °F 92% 29.91 in 10.0 mi Calm Calm - N/A   Clear